| time (UTC) | temp F | wind direction | speed MPH | gust MPH | rain 1hr in | rain 24hr in | rain mn in | humidity % | barometer mb |
| 20260506204808 | 61 | 197 | 2.0 | 2.0 | 0.00 | 0.02 | 0.02 | 82 | 1017.3 |
| 20260506204308 | 61 | 197 | 1.0 | 2.0 | 0.00 | 0.02 | 0.02 | 82 | 1017.3 |
| 20260506203808 | 61 | 197 | 2.0 | 3.0 | 0.00 | 0.02 | 0.02 | 82 | 1017.3 |
| 20260506203308 | 61 | 198 | 2.0 | 3.0 | 0.00 | 0.02 | 0.02 | 82 | 1017.4 |
| 20260506202808 | 61 | 198 | 3.0 | 3.0 | 0.00 | 0.02 | 0.02 | 82 | 1017.3 |
| 20260506202308 | 61 | 201 | 2.0 | 3.0 | 0.00 | 0.02 | 0.02 | 82 | 1017.4 |
| 20260506201808 | 61 | 209 | 2.0 | 3.0 | 0.00 | 0.02 | 0.02 | 82 | 1017.4 |
| 20260506201308 | 61 | 209 | 1.0 | 4.0 | 0.00 | 0.02 | 0.02 | 83 | 1017.3 |
| 20260506200808 | 61 | 84 | 1.0 | 2.0 | 0.00 | 0.02 | 0.02 | 83 | 1017.4 |
| 20260506200308 | 61 | 82 | 2.0 | 2.0 | 0.00 | 0.02 | 0.02 | 83 | 1017.4 |
| 20260506195808 | 61 | 82 | 3.0 | 3.0 | 0.00 | 0.02 | 0.02 | 83 | 1017.4 |
| 20260506195308 | 61 | 83 | 4.0 | 5.0 | 0.00 | 0.02 | 0.02 | 83 | 1017.4 |
| 20260506194808 | 61 | 82 | 4.0 | 5.0 | 0.00 | 0.02 | 0.02 | 83 | 1017.4 |
| 20260506194308 | 62 | 85 | 5.0 | 5.0 | 0.00 | 0.02 | 0.02 | 84 | 1017.4 |
| 20260506193808 | 62 | 89 | 4.0 | 7.0 | 0.00 | 0.02 | 0.02 | 83 | 1017.4 |
| 20260506193308 | 62 | 88 | 2.0 | 4.0 | 0.00 | 0.02 | 0.02 | 83 | 1017.5 |
| 20260506192808 | 62 | 29 | 1.0 | 3.0 | 0.00 | 0.02 | 0.02 | 82 | 1017.4 |
| 20260506192308 | 62 | 285 | 0.0 | 0.0 | 0.00 | 0.02 | 0.02 | 82 | 1017.4 |
| 20260506191808 | 62 | 285 | 0.0 | 0.0 | 0.00 | 0.02 | 0.02 | 81 | 1017.4 |
| 20260506191308 | 62 | 285 | 0.0 | 0.0 | 0.00 | 0.02 | 0.02 | 81 | 1017.4 |
| 20260506190808 | 62 | 284 | 0.0 | 0.0 | 0.00 | 0.02 | 0.02 | 80 | 1017.4 |
| 20260506190308 | 62 | 284 | 1.0 | 1.0 | 0.00 | 0.02 | 0.02 | 80 | 1017.3 |
| 20260506185808 | 63 | 284 | 1.0 | 2.0 | 0.00 | 0.02 | 0.02 | 80 | 1017.3 |
| 20260506185308 | 63 | 284 | 0.0 | 1.0 | 0.00 | 0.02 | 0.02 | 80 | 1017.2 |
| 20260506184808 | 63 | 284 | 0.0 | 0.0 | 0.00 | 0.02 | 0.02 | 80 | 1017.1 |
| 20260506184308 | 63 | 284 | 0.0 | 0.0 | 0.00 | 0.02 | 0.02 | 79 | 1017.3 |
| 20260506183808 | 63 | 284 | 0.0 | 0.0 | 0.00 | 0.02 | 0.02 | 78 | 1017.1 |
| 20260506183308 | 63 | 284 | 1.0 | 0.0 | 0.00 | 0.02 | 0.02 | 78 | 1017.0 |
| 20260506182808 | 63 | 284 | 1.0 | 2.0 | 0.00 | 0.02 | 0.02 | 78 | 1017.0 |
| 20260506182308 | 63 | 284 | 1.0 | 2.0 | 0.00 | 0.02 | 0.02 | 78 | 1017.0 |
| 20260506181808 | 63 | 284 | 1.0 | 2.0 | 0.00 | 0.02 | 0.02 | 78 | 1016.9 |
| 20260506181308 | 63 | 284 | 2.0 | 4.0 | 0.00 | 0.02 | 0.02 | 77 | 1016.9 |
| 20260506180808 | 63 | 284 | 2.0 | 4.0 | 0.00 | 0.02 | 0.02 | 77 | 1016.8 |
| 20260506180308 | 64 | 290 | 2.0 | 3.0 | 0.00 | 0.02 | 0.02 | 77 | 1016.8 |
| 20260506175808 | 64 | 279 | 3.0 | 3.0 | 0.00 | 0.02 | 0.02 | 77 | 1016.7 |
| 20260506175308 | 64 | 287 | 3.0 | 4.0 | 0.00 | 0.02 | 0.02 | 76 | 1016.7 |
| 20260506174808 | 64 | 284 | 3.0 | 4.0 | 0.00 | 0.02 | 0.02 | 75 | 1016.6 |
| 20260506174308 | 64 | 273 | 3.0 | 4.0 | 0.00 | 0.02 | 0.02 | 75 | 1016.5 |
| 20260506173808 | 64 | 279 | 2.0 | 4.0 | 0.00 | 0.02 | 0.02 | 74 | 1016.5 |
| 20260506173308 | 65 | 286 | 1.0 | 3.0 | 0.00 | 0.02 | 0.02 | 74 | 1016.3 |
| 20260506172808 | 65 | 251 | 2.0 | 3.0 | 0.00 | 0.02 | 0.02 | 73 | 1016.1 |
| 20260506172308 | 65 | 248 | 2.0 | 4.0 | 0.00 | 0.02 | 0.02 | 73 | 1016.2 |
| 20260506171808 | 65 | 260 | 2.0 | 4.0 | 0.00 | 0.02 | 0.02 | 72 | 1016.1 |
| 20260506171308 | 65 | 257 | 3.0 | 3.0 | 0.00 | 0.02 | 0.02 | 71 | 1016.2 |
| 20260506170808 | 65 | 246 | 2.0 | 4.0 | 0.00 | 0.02 | 0.02 | 71 | 1016.2 |
| 20260506170308 | 65 | 252 | 2.0 | 4.0 | 0.00 | 0.02 | 0.02 | 71 | 1016.2 |
| 20260506165808 | 65 | 257 | 3.0 | 4.0 | 0.00 | 0.02 | 0.02 | 71 | 1016.2 |
| 20260506165308 | 65 | 269 | 3.0 | 4.0 | 0.00 | 0.02 | 0.02 | 70 | 1016.2 |
| 20260506164808 | 65 | 265 | 3.0 | 4.0 | 0.00 | 0.02 | 0.02 | 70 | 1016.2 |
| 20260506164308 | 65 | 298 | 3.0 | 4.0 | 0.00 | 0.02 | 0.02 | 70 | 1016.2 |
| 20260506163808 | 65 | 302 | 4.0 | 7.0 | 0.00 | 0.02 | 0.02 | 70 | 1016.2 |
| 20260506163308 | 65 | 294 | 4.0 | 6.0 | 0.00 | 0.02 | 0.02 | 69 | 1016.3 |
| 20260506162808 | 65 | 265 | 4.0 | 7.0 | 0.00 | 0.02 | 0.02 | 70 | 1016.4 |
| 20260506162308 | 65 | 274 | 4.0 | 6.0 | 0.00 | 0.02 | 0.02 | 70 | 1016.4 |
| 20260506161808 | 65 | 292 | 3.0 | 6.0 | 0.00 | 0.02 | 0.02 | 71 | 1016.5 |
| 20260506161308 | 65 | 321 | 1.0 | 5.0 | 0.00 | 0.02 | 0.02 | 71 | 1016.4 |
| 20260506160808 | 65 | 315 | 0.0 | 0.0 | 0.00 | 0.02 | 0.02 | 73 | 1016.3 |
| 20260506160308 | 65 | 315 | 1.0 | 1.0 | 0.00 | 0.02 | 0.02 | 74 | 1016.4 |
| 20260506155808 | 65 | 315 | 2.0 | 3.0 | 0.00 | 0.02 | 0.02 | 74 | 1016.4 |
| 20260506155308 | 65 | 314 | 2.0 | 5.0 | 0.00 | 0.02 | 0.02 | 74 | 1016.6 |
| 20260506154808 | 65 | 333 | 2.0 | 4.0 | 0.00 | 0.02 | 0.02 | 74 | 1016.6 |
| 20260506154308 | 65 | 322 | 3.0 | 4.0 | 0.00 | 0.02 | 0.02 | 74 | 1016.6 |
| 20260506153808 | 65 | 355 | 3.0 | 3.0 | 0.00 | 0.02 | 0.02 | 74 | 1016.6 |
| 20260506153308 | 65 | 334 | 3.0 | 5.0 | 0.00 | 0.02 | 0.02 | 74 | 1016.6 |
| 20260506152808 | 65 | 338 | 3.0 | 5.0 | 0.00 | 0.02 | 0.02 | 74 | 1016.6 |
| 20260506152308 | 65 | 337 | 3.0 | 5.0 | 0.00 | 0.02 | 0.02 | 74 | 1016.5 |
| 20260506151808 | 65 | 314 | 3.0 | 7.0 | 0.00 | 0.02 | 0.02 | 74 | 1016.7 |
| 20260506151308 | 65 | 293 | 3.0 | 6.0 | 0.00 | 0.02 | 0.02 | 73 | 1016.7 |
| 20260506150808 | 64 | 306 | 3.0 | 7.0 | 0.00 | 0.02 | 0.02 | 73 | 1016.8 |
| 20260506150308 | 64 | 283 | 3.0 | 4.0 | 0.00 | 0.02 | 0.02 | 73 | 1016.8 |
| 20260506145808 | 65 | 302 | 2.0 | 5.0 | 0.00 | 0.02 | 0.02 | 73 | 1016.8 |
| 20260506145308 | 65 | 11 | 1.0 | 2.0 | 0.00 | 0.02 | 0.02 | 74 | 1016.8 |
| 20260506144808 | 64 | 11 | 2.0 | 2.0 | 0.00 | 0.02 | 0.02 | 74 | 1016.9 |
| 20260506144308 | 64 | 11 | 3.0 | 7.0 | 0.00 | 0.02 | 0.02 | 74 | 1016.9 |
| 20260506143808 | 64 | 15 | 2.0 | 5.0 | 0.00 | 0.02 | 0.02 | 75 | 1016.8 |
| 20260506143308 | 64 | 18 | 2.0 | 4.0 | 0.00 | 0.02 | 0.02 | 75 | 1016.9 |
| 20260506142808 | 64 | 355 | 3.0 | 4.0 | 0.00 | 0.02 | 0.02 | 74 | 1017.0 |
| 20260506142308 | 64 | 342 | 3.0 | 5.0 | 0.00 | 0.02 | 0.02 | 74 | 1017.1 |
| 20260506141808 | 64 | 342 | 3.0 | 7.0 | 0.00 | 0.02 | 0.02 | 74 | 1017.0 |
| 20260506141308 | 64 | 349 | 2.0 | 4.0 | 0.00 | 0.02 | 0.02 | 74 | 1017.0 |
| 20260506140808 | 64 | 338 | 2.0 | 3.0 | 0.00 | 0.02 | 0.02 | 75 | 1017.2 |
| 20260506140308 | 64 | 337 | 2.0 | 3.0 | 0.00 | 0.02 | 0.02 | 75 | 1017.3 |
| 20260506135808 | 64 | 280 | 3.0 | 6.0 | 0.00 | 0.02 | 0.02 | 75 | 1017.3 |
| 20260506135308 | 64 | 229 | 4.0 | 7.0 | 0.00 | 0.02 | 0.02 | 75 | 1017.4 |
| 20260506134808 | 64 | 288 | 3.0 | 6.0 | 0.00 | 0.02 | 0.02 | 75 | 1017.4 |
| 20260506134308 | 63 | 279 | 3.0 | 7.0 | 0.01 | 0.02 | 0.02 | 76 | 1017.5 |
| 20260506133808 | 63 | 325 | 4.0 | 10.0 | 0.02 | 0.02 | 0.02 | 77 | 1017.6 |
| 20260506133308 | 64 | 294 | 5.0 | 8.0 | 0.02 | 0.02 | 0.02 | 78 | 1017.4 |
| 20260506132808 | 63 | 295 | 5.0 | 8.0 | 0.02 | 0.02 | 0.02 | 79 | 1017.4 |
| 20260506132308 | 64 | 298 | 5.0 | 9.0 | 0.02 | 0.02 | 0.02 | 79 | 1017.4 |
| 20260506131809 | 64 | 267 | 5.0 | 6.0 | 0.02 | 0.02 | 0.02 | 79 | 1017.5 |
| 20260506131309 | 63 | 269 | 6.0 | 8.0 | 0.02 | 0.02 | 0.02 | 78 | 1017.5 |
| 20260506130809 | 63 | 278 | 7.0 | 11.0 | 0.02 | 0.02 | 0.02 | 78 | 1017.5 |
| 20260506130309 | 63 | 308 | 7.0 | 10.0 | 0.02 | 0.02 | 0.02 | 79 | 1017.6 |
| 20260506125809 | 63 | 271 | 5.0 | 9.0 | 0.02 | 0.02 | 0.02 | 77 | 1017.7 |
| 20260506125309 | 63 | 311 | 4.0 | 6.0 | 0.02 | 0.02 | 0.02 | 79 | 1017.5 |
| 20260506124809 | 64 | 296 | 6.0 | 7.0 | 0.02 | 0.02 | 0.02 | 78 | 1017.7 |
| 20260506124309 | 64 | 299 | 8.0 | 10.0 | 0.01 | 0.01 | 0.01 | 77 | 1017.7 |
| 20260506123809 | 64 | 279 | 8.0 | 12.0 | 0.00 | 0.00 | 0.00 | 75 | 1017.7 |
| 20260506123309 | 64 | 258 | 8.0 | 12.0 | 0.00 | 0.00 | 0.00 | 74 | 1017.6 |
| 20260506122809 | 65 | 284 | 9.0 | 11.0 | 0.00 | 0.00 | 0.00 | 72 | 1017.7 |
| 20260506122309 | 65 | 265 | 8.0 | 12.0 | 0.00 | 0.00 | 0.00 | 71 | 1017.6 |
| 20260506121809 | 66 | 268 | 7.0 | 11.0 | 0.00 | 0.00 | 0.00 | 68 | 1017.5 |
| 20260506121309 | 66 | 246 | 8.0 | 11.0 | 0.00 | 0.00 | 0.00 | 68 | 1017.6 |
| 20260506120809 | 66 | 242 | 10.0 | 12.0 | 0.00 | 0.00 | 0.00 | 68 | 1017.5 |
| 20260506120309 | 66 | 257 | 10.0 | 14.0 | 0.00 | 0.00 | 0.00 | 68 | 1017.4 |
| 20260506115809 | 66 | 277 | 10.0 | 14.0 | 0.00 | 0.00 | 0.00 | 67 | 1017.5 |
| 20260506115309 | 67 | 262 | 10.0 | 14.0 | 0.00 | 0.00 | 0.00 | 67 | 1017.3 |
| 20260506114809 | 68 | 260 | 8.0 | 14.0 | 0.00 | 0.00 | 0.00 | 65 | 1017.3 |
| 20260506114309 | 69 | 264 | 6.0 | 9.0 | 0.00 | 0.00 | 0.00 | 59 | 1017.3 |
| 20260506113809 | 68 | 220 | 7.0 | 10.0 | 0.00 | 0.00 | 0.00 | 63 | 1017.3 |
| 20260506113309 | 68 | 206 | 9.0 | 12.0 | 0.00 | 0.00 | 0.00 | 63 | 1017.2 |
| 20260506112809 | 68 | 232 | 11.0 | 14.0 | 0.00 | 0.00 | 0.00 | 65 | 1017.3 |
| 20260506112309 | 68 | 225 | 12.0 | 16.0 | 0.00 | 0.00 | 0.00 | 65 | 1017.2 |
| 20260506111809 | 69 | 206 | 12.0 | 16.0 | 0.00 | 0.00 | 0.00 | 66 | 1017.0 |
| 20260506111309 | 69 | 222 | 12.0 | 16.0 | 0.00 | 0.00 | 0.00 | 66 | 1017.1 |
| 20260506110809 | 69 | 252 | 11.0 | 17.0 | 0.00 | 0.00 | 0.00 | 66 | 1017.0 |
| 20260506110309 | 70 | 254 | 10.0 | 15.0 | 0.00 | 0.00 | 0.00 | 63 | 1016.9 |
| 20260506105809 | 70 | 256 | 10.0 | 16.0 | 0.00 | 0.00 | 0.00 | 65 | 1017.0 |
| 20260506105309 | 69 | 273 | 10.0 | 15.0 | 0.00 | 0.00 | 0.00 | 65 | 1017.0 |
| 20260506104809 | 70 | 256 | 8.0 | 12.0 | 0.00 | 0.00 | 0.00 | 64 | 1016.9 |
| 20260506104309 | 70 | 243 | 8.0 | 14.0 | 0.00 | 0.00 | 0.00 | 65 | 1017.0 |
| 20260506103809 | 69 | 254 | 10.0 | 14.0 | 0.00 | 0.00 | 0.00 | 65 | 1017.0 |
| 20260506103309 | 69 | 244 | 10.0 | 15.0 | 0.00 | 0.00 | 0.00 | 63 | 1017.1 |
| 20260506102809 | 69 | 241 | 9.0 | 14.0 | 0.00 | 0.00 | 0.00 | 62 | 1017.1 |
| 20260506102309 | 70 | 294 | 8.0 | 14.0 | 0.00 | 0.00 | 0.00 | 60 | 1017.0 |
| 20260506101809 | 70 | 256 | 6.0 | 13.0 | 0.00 | 0.00 | 0.00 | 60 | 1017.1 |
| 20260506101309 | 70 | 293 | 5.0 | 11.0 | 0.00 | 0.00 | 0.00 | 61 | 1017.1 |
| 20260506100809 | 70 | 335 | 6.0 | 8.0 | 0.00 | 0.00 | 0.00 | 60 | 1017.0 |
| 20260506100309 | 69 | 292 | 8.0 | 11.0 | 0.00 | 0.00 | 0.00 | 59 | 1017.1 |
| 20260506095809 | 69 | 278 | 8.0 | 12.0 | 0.00 | 0.00 | 0.00 | 59 | 1017.1 |
| 20260506095309 | 70 | 272 | 8.0 | 11.0 | 0.00 | 0.00 | 0.00 | 60 | 1017.1 |
| 20260506094809 | 70 | 313 | 9.0 | 13.0 | 0.00 | 0.00 | 0.00 | 61 | 1017.1 |
| 20260506094309 | 70 | 251 | 6.0 | 15.0 | 0.00 | 0.00 | 0.00 | 59 | 1017.2 |
| 20260506093809 | 71 | 317 | 3.0 | 9.0 | 0.00 | 0.00 | 0.00 | 56 | 1017.2 |
| 20260506093309 | 71 | 211 | 2.0 | 7.0 | 0.00 | 0.00 | 0.00 | 55 | 1017.3 |
| 20260506092809 | 70 | 292 | 3.0 | 5.0 | 0.00 | 0.00 | 0.00 | 55 | 1017.2 |
| 20260506092309 | 70 | 182 | 3.0 | 5.0 | 0.00 | 0.00 | 0.00 | 52 | 1017.3 |
| 20260506091809 | 71 | 243 | 3.0 | 6.0 | 0.00 | 0.00 | 0.00 | 53 | 1017.3 |
| 20260506091309 | 71 | 105 | 1.0 | 4.0 | 0.00 | 0.00 | 0.00 | 53 | 1017.3 |
| 20260506090809 | 70 | 56 | 2.0 | 2.0 | 0.00 | 0.00 | 0.00 | 55 | 1017.2 |
| 20260506090309 | 70 | 336 | 2.0 | 4.0 | 0.00 | 0.00 | 0.00 | 55 | 1017.3 |
| 20260506085809 | 69 | 336 | 2.0 | 4.0 | 0.00 | 0.00 | 0.00 | 56 | 1017.2 |
| 20260506085309 | 69 | 270 | 2.0 | 3.0 | 0.00 | 0.00 | 0.00 | 57 | 1017.3 |
| 20260506084809 | 69 | 245 | 2.0 | 4.0 | 0.00 | 0.00 | 0.00 | 57 | 1017.3 |
| 20260506084309 | 69 | 183 | 2.0 | 4.0 | 0.00 | 0.00 | 0.00 | 56 | 1017.3 |
| 20260506083809 | 69 | 269 | 1.0 | 3.0 | 0.00 | 0.00 | 0.00 | 57 | 1017.3 |
| 20260506083309 | 69 | 342 | 2.0 | 4.0 | 0.00 | 0.00 | 0.00 | 58 | 1017.3 |
| 20260506082809 | 69 | 337 | 2.0 | 5.0 | 0.00 | 0.00 | 0.00 | 57 | 1017.2 |
| 20260506082309 | 69 | 270 | 1.0 | 2.0 | 0.00 | 0.00 | 0.00 | 58 | 1017.1 |
| 20260506081809 | 69 | 333 | 2.0 | 4.0 | 0.00 | 0.00 | 0.00 | 62 | 1017.1 |
| 20260506081309 | 68 | 294 | 2.0 | 4.0 | 0.00 | 0.00 | 0.00 | 58 | 1016.9 |
| 20260506080809 | 67 | 59 | 3.0 | 5.0 | 0.00 | 0.00 | 0.00 | 59 | 1016.9 |
| 20260506080309 | 67 | 40 | 3.0 | 6.0 | 0.00 | 0.00 | 0.00 | 59 | 1016.9 |
| 20260506073309 | 67 | 343 | 3.0 | 6.0 | 0.00 | 0.00 | 0.00 | 62 | 1017.0 |
| 20260506072809 | 66 | 0 | 3.0 | 6.0 | 0.00 | 0.00 | 0.00 | 61 | 1016.9 |
| 20260506072309 | 66 | 31 | 2.0 | 5.0 | 0.00 | 0.00 | 0.00 | 62 | 1016.8 |
| 20260506071809 | 66 | 54 | 2.0 | 6.0 | 0.00 | 0.00 | 0.00 | 64 | 1016.8 |
| 20260506071309 | 65 | 5 | 3.0 | 6.0 | 0.00 | 0.00 | 0.00 | 63 | 1016.8 |
| 20260506070809 | 65 | 33 | 4.0 | 5.0 | 0.00 | 0.00 | 0.00 | 62 | 1016.8 |
| 20260506070309 | 65 | 13 | 4.0 | 9.0 | 0.00 | 0.00 | 0.00 | 63 | 1016.8 |
| 20260506062309 | 62 | 0 | 2.0 | 6.0 | 0.00 | 0.00 | 0.00 | 68 | 1017.2 |
| 20260506061809 | 62 | 340 | 1.0 | 3.0 | 0.00 | 0.00 | 0.00 | 70 | 1017.2 |
| 20260506061309 | 62 | 323 | 1.0 | 3.0 | 0.00 | 0.00 | 0.00 | 70 | 1017.1 |
| 20260506060809 | 61 | 316 | 1.0 | 3.0 | 0.00 | 0.00 | 0.00 | 70 | 1017.2 |
| 20260506060309 | 61 | 317 | 1.0 | 3.0 | 0.00 | 0.00 | 0.00 | 70 | 1017.1 |
| 20260506051309 | 56 | 297 | 1.0 | 3.0 | 0.00 | 0.00 | 0.00 | 76 | 1017.0 |
| 20260506050809 | 56 | 303 | 1.0 | 3.0 | 0.00 | 0.00 | 0.00 | 76 | 1017.0 |
| 20260506044809 | 55 | 290 | 3.0 | 4.0 | 0.00 | 0.00 | 0.00 | 77 | 1017.1 |
| 20260506044309 | 55 | 275 | 2.0 | 4.0 | 0.00 | 0.00 | 0.00 | 78 | 1017.1 |
| 20260506043809 | 55 | 305 | 3.0 | 4.0 | 0.00 | 0.00 | 0.00 | 78 | 1017.0 |
| 20260506043310 | 55 | 279 | 4.0 | 6.0 | 0.00 | 0.00 | 0.00 | 79 | 1017.0 |
| 20260506042809 | 55 | 286 | 3.0 | 7.0 | 0.00 | 0.00 | 0.00 | 78 | 1017.1 |
| 20260506042310 | 55 | 286 | 3.0 | 6.0 | 0.00 | 0.00 | 0.00 | 78 | 1017.0 |
| 20260506041810 | 54 | 304 | 3.0 | 5.0 | 0.00 | 0.00 | 0.00 | 78 | 1017.0 |
| 20260506041310 | 54 | 319 | 3.0 | 5.0 | 0.00 | 0.00 | 0.00 | 79 | 1017.0 |
| 20260506040810 | 54 | 301 | 3.0 | 4.0 | 0.00 | 0.00 | 0.00 | 79 | 1017.0 |
| 20260506040310 | 54 | 335 | 4.0 | 5.0 | 0.00 | 0.00 | 0.00 | 80 | 1017.0 |
| 20260506035810 | 53 | 332 | 4.0 | 5.0 | 0.00 | 0.00 | 0.00 | 80 | 1016.9 |
| 20260506035310 | 53 | 331 | 3.0 | 5.0 | 0.00 | 0.00 | 0.00 | 80 | 1016.9 |
| 20260506034810 | 53 | 309 | 3.0 | 4.0 | 0.00 | 0.00 | 0.00 | 80 | 1016.8 |
| 20260506034310 | 53 | 315 | 3.0 | 4.0 | 0.00 | 0.00 | 0.00 | 80 | 1017.0 |
| 20260506033810 | 53 | 323 | 3.0 | 4.0 | 0.00 | 0.00 | 0.00 | 80 | 1016.9 |
| 20260506033310 | 53 | 321 | 4.0 | 5.0 | 0.00 | 0.00 | 0.00 | 80 | 1016.9 |
| 20260506032810 | 53 | 332 | 3.0 | 5.0 | 0.00 | 0.00 | 0.00 | 80 | 1016.9 |
| 20260506032310 | 52 | 318 | 4.0 | 4.0 | 0.00 | 0.00 | 0.00 | 80 | 1016.9 |
| 20260506031810 | 53 | 321 | 4.0 | 5.0 | 0.00 | 0.00 | 0.00 | 80 | 1016.8 |
| 20260506031310 | 53 | 329 | 4.0 | 5.0 | 0.00 | 0.00 | 0.00 | 80 | 1016.8 |
| 20260506030810 | 52 | 329 | 4.0 | 5.0 | 0.00 | 0.00 | 0.00 | 81 | 1016.8 |
| 20260506030310 | 52 | 329 | 4.0 | 5.0 | 0.00 | 0.00 | 0.00 | 81 | 1016.8 |
| 20260506025810 | 53 | 327 | 3.0 | 5.0 | 0.00 | 0.00 | 0.00 | 81 | 1016.8 |
| 20260506025310 | 53 | 324 | 3.0 | 5.0 | 0.00 | 0.00 | 0.00 | 82 | 1016.9 |
| 20260506024810 | 53 | 305 | 3.0 | 4.0 | 0.00 | 0.00 | 0.00 | 82 | 1016.8 |
| 20260506024310 | 53 | 308 | 3.0 | 4.0 | 0.00 | 0.00 | 0.00 | 82 | 1016.9 |
| 20260506023810 | 52 | 316 | 3.0 | 4.0 | 0.00 | 0.00 | 0.00 | 83 | 1016.9 |
| 20260506023310 | 52 | 316 | 3.0 | 4.0 | 0.00 | 0.00 | 0.00 | 83 | 1016.8 |
| 20260506022810 | 52 | 314 | 3.0 | 4.0 | 0.00 | 0.00 | 0.00 | 84 | 1016.8 |
| 20260506022310 | 53 | 311 | 3.0 | 4.0 | 0.00 | 0.00 | 0.00 | 85 | 1016.9 |
| 20260506021810 | 53 | 310 | 2.0 | 3.0 | 0.00 | 0.00 | 0.00 | 85 | 1016.9 |
| 20260506021310 | 53 | 309 | 2.0 | 3.0 | 0.00 | 0.00 | 0.00 | 85 | 1017.0 |
| 20260506020810 | 53 | 309 | 2.0 | 3.0 | 0.00 | 0.00 | 0.00 | 86 | 1017.1 |
| 20260506020310 | 53 | 309 | 2.0 | 2.0 | 0.00 | 0.00 | 0.00 | 85 | 1017.1 |
| 20260506015810 | 53 | 309 | 1.0 | 2.0 | 0.00 | 0.00 | 0.00 | 86 | 1017.0 |
| 20260506015310 | 53 | 309 | 2.0 | 3.0 | 0.00 | 0.00 | 0.00 | 86 | 1017.1 |
| 20260506014810 | 53 | 309 | 1.0 | 3.0 | 0.00 | 0.00 | 0.00 | 86 | 1017.0 |
| 20260506014310 | 53 | 326 | 1.0 | 3.0 | 0.00 | 0.00 | 0.00 | 86 | 1017.0 |
| 20260506013810 | 54 | 288 | 2.0 | 3.0 | 0.00 | 0.00 | 0.00 | 85 | 1017.1 |
| 20260506013310 | 54 | 286 | 2.0 | 3.0 | 0.00 | 0.00 | 0.00 | 85 | 1017.1 |
| 20260506012810 | 54 | 280 | 1.0 | 3.0 | 0.00 | 0.00 | 0.00 | 85 | 1017.1 |
| 20260506012310 | 54 | 279 | 0.0 | 0.0 | 0.00 | 0.00 | 0.00 | 85 | 1017.1 |
| 20260506011810 | 54 | 279 | 1.0 | 2.0 | 0.00 | 0.00 | 0.00 | 85 | 1017.1 |
| 20260506011310 | 54 | 279 | 2.0 | 4.0 | 0.00 | 0.00 | 0.00 | 84 | 1017.1 |
| 20260506010810 | 55 | 284 | 2.0 | 4.0 | 0.00 | 0.00 | 0.00 | 84 | 1017.1 |
| 20260506010310 | 55 | 298 | 2.0 | 3.0 | 0.00 | 0.00 | 0.00 | 83 | 1017.2 |
| 20260506005810 | 55 | 337 | 2.0 | 3.0 | 0.00 | 0.00 | 0.00 | 83 | 1017.1 |
| 20260506005310 | 55 | 338 | 3.0 | 4.0 | 0.00 | 0.00 | 0.00 | 83 | 1017.0 |
| 20260506004810 | 55 | 319 | 3.0 | 4.0 | 0.00 | 0.00 | 0.00 | 83 | 1017.1 |
| 20260506004310 | 55 | 313 | 2.0 | 4.0 | 0.00 | 0.00 | 0.00 | 83 | 1017.1 |
| 20260506003810 | 55 | 327 | 1.0 | 4.0 | 0.00 | 0.00 | 0.00 | 83 | 1017.1 |
| 20260506003310 | 55 | 40 | 2.0 | 3.0 | 0.00 | 0.00 | 0.00 | 83 | 1017.1 |
| 20260506002810 | 55 | 40 | 2.0 | 3.0 | 0.00 | 0.00 | 0.00 | 83 | 1017.1 |
| 20260506002310 | 55 | 40 | 2.0 | 3.0 | 0.00 | 0.00 | 0.00 | 83 | 1017.0 |
| 20260506001810 | 55 | 40 | 2.0 | 3.0 | 0.00 | 0.00 | 0.00 | 84 | 1017.0 |
| 20260506001310 | 55 | 40 | 2.0 | 3.0 | 0.00 | 0.00 | 0.00 | 84 | 1016.9 |
| 20260506000810 | 55 | 40 | 2.0 | 3.0 | 0.00 | 0.00 | 0.00 | 84 | 1017.0 |
| 20260506000310 | 55 | 44 | 2.0 | 3.0 | 0.00 | 0.00 | 0.00 | 83 | 1017.0 |
| 20260505235810 | 55 | 97 | 1.0 | 3.0 | 0.00 | 0.00 | 0.00 | 83 | 1017.1 |
| 20260505235310 | 55 | 159 | 0.0 | 0.0 | 0.00 | 0.00 | 0.00 | 83 | 1017.0 |
| 20260505234810 | 55 | 159 | 0.0 | 1.0 | 0.00 | 0.00 | 0.00 | 82 | 1016.9 |
| 20260505234310 | 56 | 159 | 0.0 | 0.0 | 0.00 | 0.00 | 0.00 | 82 | 1017.0 |
| 20260505233810 | 56 | 159 | 0.0 | 0.0 | 0.00 | 0.00 | 0.00 | 82 | 1017.0 |
| 20260505233310 | 56 | 159 | 1.0 | 0.0 | 0.00 | 0.00 | 0.00 | 82 | 1017.1 |
| 20260505232810 | 56 | 159 | 2.0 | 4.0 | 0.00 | 0.00 | 0.00 | 82 | 1017.2 |
| 20260505232310 | 56 | 160 | 2.0 | 4.0 | 0.00 | 0.00 | 0.00 | 82 | 1017.3 |
| 20260505231810 | 56 | 159 | 2.0 | 5.0 | 0.00 | 0.00 | 0.00 | 83 | 1017.3 |
| 20260505231310 | 56 | 146 | 1.0 | 3.0 | 0.00 | 0.00 | 0.00 | 82 | 1017.3 |
| 20260505230810 | 56 | 143 | 2.0 | 3.0 | 0.00 | 0.00 | 0.00 | 82 | 1017.4 |
| 20260505230310 | 56 | 143 | 3.0 | 5.0 | 0.00 | 0.00 | 0.00 | 82 | 1017.4 |
| 20260505225810 | 56 | 121 | 3.0 | 4.0 | 0.00 | 0.00 | 0.00 | 83 | 1017.4 |
| 20260505225310 | 56 | 94 | 3.0 | 4.0 | 0.00 | 0.00 | 0.00 | 82 | 1017.5 |
| 20260505224810 | 57 | 74 | 3.0 | 3.0 | 0.00 | 0.00 | 0.00 | 82 | 1017.6 |
| 20260505224310 | 57 | 76 | 2.0 | 4.0 | 0.00 | 0.00 | 0.00 | 81 | 1017.6 |
| 20260505223810 | 58 | 124 | 3.0 | 3.0 | 0.00 | 0.00 | 0.00 | 81 | 1017.6 |
| 20260505223310 | 58 | 153 | 4.0 | 5.0 | 0.00 | 0.00 | 0.00 | 82 | 1017.6 |
| 20260505222810 | 58 | 175 | 5.0 | 7.0 | 0.00 | 0.00 | 0.00 | 81 | 1017.5 |
| 20260505222310 | 58 | 160 | 4.0 | 7.0 | 0.00 | 0.00 | 0.00 | 81 | 1017.6 |
| 20260505221810 | 58 | 176 | 2.0 | 6.0 | 0.00 | 0.00 | 0.00 | 81 | 1017.5 |
| 20260505221310 | 58 | 153 | 2.0 | 6.0 | 0.00 | 0.00 | 0.00 | 80 | 1017.6 |
| 20260505220810 | 58 | 355 | 2.0 | 2.0 | 0.00 | 0.00 | 0.00 | 80 | 1017.5 |
| 20260505220310 | 58 | 355 | 2.0 | 3.0 | 0.00 | 0.00 | 0.00 | 80 | 1017.6 |
| 20260505215810 | 58 | 355 | 2.0 | 3.0 | 0.00 | 0.00 | 0.00 | 79 | 1017.7 |
| 20260505215310 | 59 | 355 | 2.0 | 4.0 | 0.00 | 0.00 | 0.00 | 79 | 1017.7 |
| 20260505214810 | 59 | 325 | 1.0 | 3.0 | 0.00 | 0.00 | 0.00 | 78 | 1017.6 |
| 20260505214310 | 60 | 274 | 1.0 | 2.0 | 0.00 | 0.00 | 0.00 | 78 | 1017.6 |
| 20260505213810 | 60 | 273 | 0.0 | 2.0 | 0.00 | 0.00 | 0.00 | 78 | 1017.6 |
| 20260505213310 | 60 | 273 | 0.0 | 0.0 | 0.00 | 0.00 | 0.00 | 77 | 1017.6 |
| 20260505212810 | 60 | 273 | 0.0 | 0.0 | 0.00 | 0.00 | 0.00 | 77 | 1017.5 |
| 20260505212310 | 60 | 273 | 1.0 | 1.0 | 0.00 | 0.00 | 0.00 | 77 | 1017.6 |
| 20260505211810 | 60 | 273 | 1.0 | 2.0 | 0.00 | 0.00 | 0.00 | 77 | 1017.5 |
| 20260505211310 | 60 | 273 | 2.0 | 3.0 | 0.00 | 0.00 | 0.00 | 77 | 1017.6 |
| 20260505210810 | 60 | 273 | 2.0 | 4.0 | 0.00 | 0.00 | 0.00 | 76 | 1017.5 |
| 20260505210310 | 61 | 289 | 1.0 | 3.0 | 0.00 | 0.00 | 0.00 | 76 | 1017.6 |
| 20260505205810 | 60 | 345 | 0.0 | 2.0 | 0.00 | 0.00 | 0.00 | 75 | 1017.5 |
| 20260505205310 | 61 | 345 | 0.0 | 0.0 | 0.00 | 0.00 | 0.00 | 75 | 1017.7 |